• In Latvia
  • List of Countries
  • For 7 days
  • Water Temperature
  • Satellite Maps
  • Weather Map
  • Weather Widgets
  • user-avatar
    Login

    Hourly Weather Patmos

    Today, 15 December, Friday

    Time Temperature Precipitation Wind Pressure Humidity
    00:00 +12°C° 0 mm 4 mps 760 mmHg 93%
    01:00 +12°C° 0 mm 4 mps 760 mmHg 93%
    02:00 +12°C° 0 mm 4 mps 760 mmHg 92%
    03:00 +12°C° 0 mm 3 mps 760 mmHg 92%
    04:00 +12°C° 0 mm 3 mps 760 mmHg 91%
    05:00 +12°C° 0 mm 3 mps 760 mmHg 91%
    06:00 +12°C° 0 mm 3 mps 761 mmHg 92%
    07:00 +12°C° 0 mm 4 mps 761 mmHg 92%
    08:00 +12°C° 0 mm 4 mps 761 mmHg 92%
    09:00 +14°C° 0 mm 4 mps 761 mmHg 85%
    10:00 +16°C° 0 mm 5 mps 761 mmHg 78%
    11:00 +19°C° 0 mm 5 mps 762 mmHg 71%
    12:00 +17°C° 0 mm 6 mps 761 mmHg 71%
    13:00 +17°C° 0 mm 6 mps 761 mmHg 72%
    14:00 +17°C° 0 mm 7 mps 761 mmHg 72%
    15:00 +17°C° 0 mm 7 mps 761 mmHg 77%
    16:00 +16°C° 0 mm 7 mps 761 mmHg 82%
    17:00 +15°C° 0 mm 8 mps 761 mmHg 86%
    18:00 +15°C° 0 mm 8 mps 761 mmHg 87%
    19:00 +15°C° 0 mm 8 mps 761 mmHg 87%
    20:00 +15°C° 0 mm 8 mps 761 mmHg 88%
    21:00 +15°C° 0.1 mm 8 mps 761 mmHg 88%
    22:00 +15°C° 0.1 mm 8 mps 761 mmHg 87%
    23:00 +15°C° 0.1 mm 8 mps 761 mmHg 87%

    Tomorrow, 16 December, Saturday

    Time Temperature Precipitation Wind Pressure Humidity
    00:00 +13°C° 0.1 mm 8 mps 762 mmHg 87%
    01:00 +13°C° 0.1 mm 8 mps 762 mmHg 88%
    02:00 +12°C° 0.1 mm 8 mps 762 mmHg 88%
    03:00 +12°C° 0.1 mm 8 mps 761 mmHg 89%
    04:00 +12°C° 0.1 mm 7 mps 761 mmHg 89%
    05:00 +12°C° 0.1 mm 7 mps 761 mmHg 89%
    06:00 +12°C° 0.1 mm 7 mps 761 mmHg 89%
    07:00 +12°C° 0.1 mm 7 mps 761 mmHg 90%
    08:00 +12°C° 0.1 mm 7 mps 761 mmHg 90%
    09:00 +15°C° 0 mm 7 mps 761 mmHg 84%
    10:00 +16°C° 0 mm 7 mps 761 mmHg 77%
    11:00 +18°C° 0 mm 8 mps 762 mmHg 71%
    12:00 +18°C° 0 mm 8 mps 761 mmHg 69%
    13:00 +19°C° 0 mm 9 mps 760 mmHg 67%
    14:00 +19°C° 0 mm 9 mps 760 mmHg 65%
    15:00 +18°C° 0 mm 9 mps 759 mmHg 71%
    16:00 +17°C° 0 mm 10 mps 759 mmHg 78%
    17:00 +14°C° 0 mm 10 mps 759 mmHg 85%
    18:00 +14°C° 0.9 mm 10 mps 759 mmHg 86%
    19:00 +16°C° 0.9 mm 11 mps 759 mmHg 88%
    20:00 +16°C° 0.9 mm 11 mps 760 mmHg 89%
    21:00 +14°C° 1 mm 11 mps 760 mmHg 89%
    22:00 +14°C° 1 mm 11 mps 759 mmHg 89%
    23:00 +14°C° 1 mm 11 mps 759 mmHg 88%

    Day after tomorrow, 17 December, Sunday

    Time Temperature Precipitation Wind Pressure Humidity
    00:00 +14°C° 0.1 mm 11 mps 759 mmHg 89%
    01:00 +14°C° 0.1 mm 12 mps 759 mmHg 90%
    02:00 +13°C° 0.1 mm 13 mps 758 mmHg 90%
    03:00 +14°C° 0.2 mm 13 mps 758 mmHg 89%
    04:00 +14°C° 0.2 mm 13 mps 758 mmHg 88%
    05:00 +15°C° 0.2 mm 12 mps 757 mmHg 87%
    06:00 +15°C° 0.1 mm 12 mps 757 mmHg 87%
    07:00 +15°C° 0.1 mm 12 mps 757 mmHg 87%
    08:00 +15°C° 0.1 mm 12 mps 757 mmHg 87%
    09:00 +17°C° 0.2 mm 12 mps 758 mmHg 82%
    10:00 +18°C° 0.2 mm 11 mps 758 mmHg 77%
    11:00 +18°C° 0.2 mm 11 mps 758 mmHg 71%
    12:00 +18°C° 0.5 mm 10 mps 758 mmHg 72%
    13:00 +18°C° 0.5 mm 10 mps 758 mmHg 73%
    14:00 +18°C° 0.5 mm 9 mps 758 mmHg 74%
    15:00 +17°C° 0.4 mm 8 mps 758 mmHg 79%
    16:00 +16°C° 0.4 mm 7 mps 758 mmHg 83%
    17:00 +16°C° 0.4 mm 6 mps 759 mmHg 87%
    18:00 +15°C° 0 mm 5 mps 759 mmHg 89%
    19:00 +14°C° 0 mm 5 mps 760 mmHg 91%
    20:00 +14°C° 0 mm 4 mps 760 mmHg 93%
    21:00 +14°C° 0 mm 4 mps 760 mmHg 93%
    22:00 +14°C° 0 mm 4 mps 761 mmHg 93%
    23:00 +14°C° 0 mm 4 mps 761 mmHg 93%

    18 December, Monday

    Time Temperature Precipitation Wind Pressure Humidity
    00:00 +13°C° 0 mm 4 mps 761 mmHg 93%
    01:00 +13°C° 0 mm 4 mps 761 mmHg 93%
    02:00 +13°C° 0 mm 4 mps 761 mmHg 92%
    03:00 +13°C° 0 mm 4 mps 761 mmHg 91%
    04:00 +13°C° 0 mm 4 mps 761 mmHg 91%
    05:00 +12°C° 0 mm 5 mps 761 mmHg 90%
    06:00 +12°C° 0 mm 5 mps 761 mmHg 89%
    07:00 +12°C° 0 mm 5 mps 762 mmHg 88%
    08:00 +12°C° 0 mm 5 mps 762 mmHg 87%
    09:00 +13°C° 0 mm 6 mps 762 mmHg 80%
    10:00 +14°C° 0 mm 6 mps 762 mmHg 72%
    11:00 +15°C° 0 mm 6 mps 762 mmHg 65%
    12:00 +15°C° 0.1 mm 6 mps 762 mmHg 64%
    13:00 +15°C° 0.1 mm 7 mps 762 mmHg 62%
    14:00 +15°C° 0.1 mm 7 mps 762 mmHg 61%
    15:00 +14°C° 0 mm 7 mps 762 mmHg 67%
    16:00 +12°C° 0 mm 8 mps 762 mmHg 73%
    17:00 +10°C° 0 mm 8 mps 762 mmHg 78%
    18:00 +10°C° 0 mm 8 mps 763 mmHg 80%
    19:00 +9°C° 0 mm 8 mps 763 mmHg 81%
    20:00 +9°C° 0 mm 8 mps 764 mmHg 83%
    21:00 +8°C° 0 mm 7 mps 764 mmHg 83%
    22:00 +8°C° 0 mm 7 mps 764 mmHg 84%
    23:00 +6°C° 0 mm 7 mps 764 mmHg 85%

    19 December, Tuesday

    Time Temperature Precipitation Wind Pressure Humidity
    00:00 +6°C° 0 mm 7 mps 764 mmHg 86%
    01:00 +6°C° 0 mm 7 mps 765 mmHg 88%
    02:00 +5°C° 0 mm 7 mps 765 mmHg 89%
    03:00 +5°C° 0 mm 7 mps 765 mmHg 90%
    04:00 +4°C° 0 mm 6 mps 765 mmHg 90%
    05:00 +4°C° 0 mm 6 mps 765 mmHg 91%
    06:00 +4°C° 0 mm 6 mps 765 mmHg 91%
    07:00 +4°C° 0 mm 6 mps 765 mmHg 91%
    08:00 +3°C° 0 mm 6 mps 766 mmHg 91%
    09:00 +5°C° 0 mm 6 mps 766 mmHg 82%
    10:00 +7°C° 0 mm 6 mps 766 mmHg 73%
    11:00 +9°C° 0 mm 6 mps 766 mmHg 65%
    12:00 +9°C° 0 mm 6 mps 766 mmHg 60%
    13:00 +10°C° 0 mm 6 mps 766 mmHg 55%
    14:00 +11°C° 0 mm 6 mps 766 mmHg 50%
    15:00 +10°C° 0 mm 6 mps 766 mmHg 55%
    16:00 +8°C° 0 mm 6 mps 766 mmHg 59%
    17:00 +7°C° 0 mm 6 mps 766 mmHg 64%
    18:00 +7°C° 0 mm 6 mps 766 mmHg 67%
    19:00 +5°C° 0 mm 6 mps 766 mmHg 70%
    20:00 +5°C° 0 mm 6 mps 766 mmHg 73%
    21:00 +4°C° 0 mm 6 mps 766 mmHg 75%
    22:00 +4°C° 0 mm 6 mps 766 mmHg 77%
    23:00 +5°C° 0 mm 5 mps 766 mmHg 79%

    20 December, Wednesday

    Time Temperature Precipitation Wind Pressure Humidity
    00:00 +4°C° 0 mm 6 mps 766 mmHg 80%
    01:00 +3°C° 0 mm 6 mps 765 mmHg 81%
    02:00 +3°C° 0 mm 6 mps 765 mmHg 81%
    03:00 +3°C° 0 mm 6 mps 765 mmHg 82%
    04:00 +3°C° 0 mm 6 mps 765 mmHg 82%
    05:00 +2°C° 0 mm 6 mps 765 mmHg 83%
    06:00 +2°C° 0 mm 6 mps 765 mmHg 81%
    07:00 +2°C° 0 mm 5 mps 765 mmHg 80%
    08:00 +3°C° 0 mm 5 mps 766 mmHg 79%
    09:00 +5°C° 0 mm 5 mps 766 mmHg 73%
    10:00 +6°C° 0 mm 5 mps 766 mmHg 67%
    11:00 +7°C° 0 mm 5 mps 766 mmHg 62%
    12:00 +8°C° 0 mm 5 mps 765 mmHg 59%
    13:00 +9°C° 0 mm 5 mps 765 mmHg 56%
    14:00 +9°C° 0 mm 6 mps 765 mmHg 53%
    15:00 +9°C° 0 mm 6 mps 765 mmHg 55%
    16:00 +8°C° 0 mm 6 mps 764 mmHg 58%
    17:00 +7°C° 0 mm 6 mps 764 mmHg 61%
    18:00 +5°C° 0 mm 6 mps 764 mmHg 63%
    19:00 +5°C° 0 mm 6 mps 765 mmHg 65%
    20:00 +4°C° 0 mm 6 mps 765 mmHg 67%
    21:00 +4°C° 0 mm 6 mps 765 mmHg 69%
    22:00 +4°C° 0 mm 6 mps 765 mmHg 70%
    23:00 +3°C° 0 mm 6 mps 765 mmHg 71%
    Show more